Weather History for Oxford, CT

Change the Weather History Date:

Monday, April 8, 2013

  Actual Average Record
Temperature  
Mean Temperature 52 °F -  
Max Temperature 64 °F 51 °F 75 °F (1999)
Min Temperature 39 °F 33 °F 24 °F (2007)
Degree Days  
Heating Degree Days 14    
Growing Degree Days 2 (Base 50)    
Moisture  
Dew Point 38 °F    
Average Humidity 69    
Maximum Humidity 93    
Minimum Humidity 34    
Precipitation  
Precipitation 0.00 in - - ()
Sea Level Pressure  
Sea Level Pressure 30.03 in    
Wind  
Wind Speed 4 mph (WSW)    
Max Wind Speed 12 mph    
Max Gust Speed 17 mph    
Visibility 9 miles    
Events      
Averages and records for this station are not official NWS values.
T = Trace of Precipitation, MM = Missing Value Source: NWS Daily Summary

Daily Weather History Graph

Daily Weather History Graph

Search for Another Location

Airport:

Trip Planner

Search our weather history database for the weather conditions in past years. The results will help you decide how hot, cold, wet, or windy it might be!

Date:

Astronomy

Apr. 08, 2013 Rise Set
Actual Time 6:23 AM EDT 7:25 PM EDT
Civil Twilight 5:55 AM EDT 7:53 PM EDT
Nautical Twilight 5:21 AM EDT 8:27 PM EDT
Astronomical Twilight 4:46 AM EDT 9:03 PM EDT
Moon 5:13 AM EDT (4/8) 5:56 PM EDT (4/8)
Length of Visible Light 13h 58m
Length of Day
13h 01m
Waning Crescent, 3% of the Moon is Illuminated
Apr 8
Waning Crescent
Apr 10
New
Apr 18
First Quarter
Apr 25
Full
May 2
Last Quarter

Hourly Weather History & Observations

Time (EDT) Temp. Windchill Dew Point Humidity Pressure Visibility Wind Dir Wind Speed Gust Speed Precip Events Conditions
12:15 AM 44.6 °F 43.1 °F 39.2 °F 81% 30.02 in 10.0 mi SSW 3.5 mph - N/A   Clear
12:35 AM 44.6 °F 43.1 °F 39.2 °F 81% 30.02 in 10.0 mi SSW 3.5 mph - N/A   Clear
12:55 AM 44.6 °F 43.1 °F 39.2 °F 81% 30.02 in 10.0 mi SW 3.5 mph - N/A   Clear
1:15 AM 42.8 °F 41.1 °F 39.2 °F 87% 30.01 in 10.0 mi SW 3.5 mph - N/A   Clear
1:35 AM 42.8 °F 41.1 °F 39.2 °F 87% 30.01 in 10.0 mi SW 3.5 mph - N/A   Scattered Clouds
1:55 AM 42.8 °F - 39.2 °F 87% 30.00 in 10.0 mi Calm Calm - N/A   Partly Cloudy
2:15 AM 44.6 °F - 39.2 °F 81% 30.01 in 10.0 mi Calm Calm - N/A   Clear
2:35 AM 42.8 °F 41.1 °F 37.4 °F 81% 30.00 in 8.0 mi SSW 3.5 mph - N/A   Clear
2:55 AM 42.8 °F - 39.2 °F 87% 29.99 in 8.0 mi Calm Calm - N/A   Clear
3:15 AM 41.0 °F - 37.4 °F 87% 29.99 in 7.0 mi Calm Calm - N/A   Clear
3:35 AM 42.8 °F - 37.4 °F 81% 29.99 in 6.0 mi Calm Calm - N/A   Mostly Cloudy
3:55 AM 41.0 °F 39.0 °F 37.4 °F 87% 29.99 in 5.0 mi South 3.5 mph - N/A   Partly Cloudy
4:15 AM 41.0 °F - 37.4 °F 87% 29.98 in 5.0 mi Calm Calm - N/A   Scattered Clouds
4:35 AM 41.0 °F - 37.4 °F 87% 29.99 in 5.0 mi Calm Calm - N/A   Mostly Cloudy
4:55 AM 39.2 °F - 35.6 °F 87% 30.00 in 4.0 mi Calm Calm - N/A   Partly Cloudy
5:15 AM 39.2 °F - 35.6 °F 87% 29.99 in 3.0 mi Calm Calm - N/A   Clear
5:35 AM 42.8 °F - 37.4 °F 81% 29.99 in 7.0 mi Calm Calm - N/A   Clear
5:45 AM 39.2 °F 35.9 °F 37.4 °F 93% 30.00 in 10.0 mi North 4.6 mph - N/A   Clear
6:45 AM 39.2 °F 35.9 °F 35.6 °F 87% 30.03 in 8.0 mi North 4.6 mph - N/A   Clear
7:45 AM 44.6 °F 42.2 °F 39.2 °F 81% 30.05 in 10.0 mi North 4.6 mph - N/A   Clear
8:45 AM 46.4 °F 44.3 °F 39.2 °F 76% 30.06 in 10.0 mi North 4.6 mph - N/A   Clear
9:45 AM 50.0 °F - 37.4 °F 62% 30.08 in 10.0 mi North 11.5 mph - N/A   Clear
10:45 AM 55.4 °F - 37.4 °F 51% 30.08 in 10.0 mi NW 11.5 mph 17.3 mph N/A   Clear
11:45 AM 57.2 °F - 37.4 °F 48% 30.08 in 10.0 mi WNW 6.9 mph - N/A   Clear
12:45 PM 59.0 °F - 37.4 °F 45% 30.09 in 10.0 mi North 5.8 mph - N/A   Clear
1:45 PM 62.6 °F - 37.4 °F 39% 30.08 in 10.0 mi NW 9.2 mph - N/A   Clear
2:45 PM 62.6 °F - 37.4 °F 39% 30.07 in 10.0 mi North 6.9 mph - N/A   Clear
3:45 PM 64.4 °F - 37.4 °F 37% 30.06 in 10.0 mi Variable 5.8 mph - N/A   Clear
4:45 PM 64.4 °F - 35.6 °F 34% 30.05 in 10.0 mi West 5.8 mph - N/A   Clear
5:45 PM 64.4 °F - 35.6 °F 34% 30.05 in 10.0 mi Variable 4.6 mph - N/A   Clear
7:45 PM 60.8 °F - 37.4 °F 42% 30.05 in 10.0 mi South 5.8 mph - N/A   Clear
9:15 PM 57.2 °F - 39.2 °F 51% 30.08 in 10.0 mi SSE 5.8 mph - N/A   Clear
9:55 PM 55.4 °F - 39.2 °F 54% 30.07 in 10.0 mi SSE 5.8 mph - N/A   Clear
10:35 PM 55.4 °F - 39.2 °F 54% 30.06 in 10.0 mi South 6.9 mph - N/A   Clear
11:55 PM 53.6 °F - 39.2 °F 58% 30.04 in 10.0 mi SSE 8.1 mph - N/A   Scattered Clouds